Bratislava, Slovakia

5:35 AM CET on January 24, 2017 (GMT +0100)
M.R. Stefanik

Weather History for LZIB - April, 2013

Change the Weather History Date:

Wednesday, April 10, 2013

  Actual Average Record
Temperature  
Mean Temperature 49 °F -  
Max Temperature 59 °F 62 °F 75 °F (2009)
Min Temperature 39 °F 44 °F 28 °F (2012)
Degree Days  
Heating Degree Days 16    
Moisture  
Dew Point 40 °F    
Average Humidity 70    
Maximum Humidity 100    
Minimum Humidity 32    
Precipitation  
Precipitation 0.02 in - - ()
Sea Level Pressure  
Sea Level Pressure 29.81 in    
Wind  
Wind Speed 8 mph ()    
Max Wind Speed 23 mph    
Max Gust Speed -    
Visibility 5.8 miles    
Events Fog , Rain    
Averages and records for this station are not official NWS values.
T = Trace of Precipitation, MM = Missing Value Source: Averaged Metar Reports

Daily Weather History Graph

Daily Weather History Graph

Search for Another Location

Airport or City:

Trip Planner

Search our weather history database for the weather conditions in past years. The results will help you decide how hot, cold, wet, or windy it might be!

Date:

Astronomy

Apr. 10, 2013 Rise Set
Actual Time 6:11 AM CEST 7:34 PM CEST
Civil Twilight 5:39 AM CEST 8:06 PM CEST
Nautical Twilight 4:59 AM CEST 8:46 PM CEST
Astronomical Twilight 4:17 AM CEST 9:28 PM CEST
Moon 5:56 AM CEST (4/10) 7:56 PM CEST (4/10)
Length of Visible Light 14h 27m
Length of Day
13h 23m
New Moon, 0% of the Moon is Illuminated
Apr 10
New Moon
Apr 18
First Quarter
Apr 25
Full
May 2
Last Quarter
May 10
New

Hourly Weather History & Observations

Time (CEST) Temp. Windchill Dew Point Humidity Pressure Visibility Wind Dir Wind Speed Gust Speed Precip Events Conditions
12:00 AM 44 °F - 42 °F 89% 29.77 in 6 mi NNE 8.9 mph - -   Scattered Clouds
12:00 AM 44.6 °F 40.2 °F 41.0 °F 87% 29.74 in 6.2 mi NE 8.1 mph - N/A   Partly Cloudy
12:30 AM 44.6 °F 40.2 °F 41.0 °F 87% 29.74 in 6.2 mi NE 8.1 mph - N/A   Partly Cloudy
1:00 AM 44 °F - 42 °F 88% 29.78 in 6 mi NNE 8.9 mph - -   Overcast
1:00 AM 44.6 °F 40.2 °F 41.0 °F 87% 29.74 in 6.2 mi NNE 8.1 mph - N/A   Overcast
1:30 AM 44.6 °F 40.2 °F 42.8 °F 93% 29.74 in 6.2 mi NNE 8.1 mph - N/A Rain Light Rain
2:00 AM 44 °F - 42 °F 91% 29.77 in 6 mi NE 8.9 mph - - Rain Light Rain
2:00 AM 44.6 °F 40.7 °F 42.8 °F 93% 29.74 in 6.2 mi NE 6.9 mph - N/A   Overcast
2:30 AM 44.6 °F 39.7 °F 42.8 °F 93% 29.74 in 5.0 mi NE 9.2 mph - N/A Rain Light Rain
3:00 AM 44 °F - 42 °F 92% 29.76 in 5 mi NE 8.9 mph - - Rain Light Rain
3:00 AM 44.6 °F 39.7 °F 42.8 °F 93% 29.74 in 5.0 mi NE 9.2 mph - N/A Rain Light Rain
3:30 AM 44.6 °F 41.4 °F 42.8 °F 93% 29.74 in 5.0 mi NE 5.8 mph - N/A   Overcast
4:00 AM 44 °F - 43 °F 94% 29.77 in 4 mi NE 6.7 mph - - Rain Light Rain
4:00 AM 44.6 °F 40.2 °F 42.8 °F 93% 29.74 in 4.3 mi NE 8.1 mph - N/A   Overcast
4:30 AM 44.6 °F 40.2 °F 42.8 °F 93% 29.74 in 4.3 mi NE 8.1 mph - N/A   Overcast
5:00 AM 44 °F - 42 °F 92% 29.78 in 4 mi NNE 6.7 mph - -   Mist
5:00 AM 44.6 °F 41.4 °F 42.8 °F 93% 29.74 in 4.3 mi NNE 5.8 mph - N/A   Overcast
5:30 AM 42.8 °F 40.1 °F 42.8 °F 100% 29.77 in 3.7 mi NE 4.6 mph - N/A   Mostly Cloudy
6:00 AM 41 °F - 40 °F 95% 29.79 in 2 mi NE 6.7 mph - -   Mist
6:00 AM 41.0 °F 36.4 °F 41.0 °F 100% 29.77 in 2.5 mi NE 6.9 mph - N/A   Partly Cloudy
6:30 AM 41.0 °F 36.4 °F 39.2 °F 93% 29.77 in 2.8 mi NE 6.9 mph - N/A   Partly Cloudy
7:00 AM 41 °F - 40 °F 97% 29.80 in 3 mi NE 4.5 mph - - Fog Patches of Fog
7:00 AM 41.0 °F 39.0 °F 39.2 °F 93% 29.77 in 2.8 mi NE 3.5 mph - N/A Fog Fog
7:30 AM 42.8 °F 40.1 °F 41.0 °F 93% 29.77 in 2.5 mi NNE 4.6 mph - N/A Fog Fog
8:00 AM 46 °F - 43 °F 84% 29.81 in 3 mi ENE 4.5 mph - -   Mist
8:00 AM 46.4 °F 44.3 °F 42.8 °F 87% 29.77 in 2.8 mi ENE 4.6 mph - N/A   Scattered Clouds
8:30 AM 46.4 °F 42.9 °F 42.8 °F 87% 29.80 in 3.7 mi ENE 6.9 mph - N/A   Mostly Cloudy
9:00 AM 46 °F - 43 °F 86% 29.81 in 4 mi NE 6.7 mph - -   Mist
9:00 AM 46.4 °F 42.9 °F 42.8 °F 87% 29.80 in 4.3 mi ENE 6.9 mph - N/A   Mostly Cloudy
9:30 AM 46.4 °F 44.3 °F 42.8 °F 87% 29.80 in 4.3 mi NNE 4.6 mph - N/A   Mostly Cloudy
10:00 AM 51 °F - 44 °F 68% 29.83 in 4 mi 2.2 mph - -   Haze
10:00 AM 50.0 °F - 44.6 °F 82% 29.80 in 4.3 mi NE 4.6 mph - N/A   Mostly Cloudy
10:30 AM 48.2 °F - 42.8 °F 82% 29.83 in 5.6 mi Variable 2.3 mph - N/A   Mostly Cloudy
11:00 AM 49 °F - 43 °F 74% 29.86 in 5 mi 4.5 mph - - Rain Light Rain Showers
11:00 AM 50.0 °F - 44.6 °F 82% 29.83 in 5.0 mi North 3.5 mph - N/A Rain Light Rain Showers
11:30 AM 48.2 °F - 42.8 °F 82% 29.83 in 6.2 mi Variable 2.3 mph - N/A   Mostly Cloudy
12:00 PM 53 °F - 43 °F 60% 29.85 in 9 mi WSW 8.9 mph - - Rain Light Rain Showers
12:00 PM 53.6 °F - 44.6 °F 72% 29.83 in 6.2 mi WSW 6.9 mph - N/A   Scattered Clouds
12:30 PM 53.6 °F - 41.0 °F 62% 29.83 in 6.2 mi West 13.8 mph - N/A   Scattered Clouds
1:00 PM 55 °F - 40 °F 45% 29.83 in 25 mi West 11.2 mph - -   Partly Cloudy
1:00 PM 55.4 °F - 39.2 °F 54% 29.80 in 6.2 mi WNW 11.5 mph - N/A   Scattered Clouds
1:30 PM 57.2 °F - 41.0 °F 55% 29.80 in 6.2 mi West 17.3 mph - N/A   Mostly Cloudy
2:00 PM 59 °F - 41 °F 40% 29.82 in 25 mi WNW 17.9 mph - -   Partly Cloudy
2:00 PM 55.4 °F - 39.2 °F 54% 29.80 in 6.2 mi WNW 18.4 mph - N/A   Mostly Cloudy
2:30 PM 57.2 °F - 39.2 °F 51% 29.80 in 6.2 mi West 20.7 mph - N/A   Scattered Clouds
3:00 PM 58 °F - 39 °F 37% 29.83 in 25 mi WNW 20.1 mph - -   Partly Cloudy
3:00 PM 59.0 °F - 39.2 °F 48% 29.80 in 6.2 mi WNW 19.6 mph - N/A   Scattered Clouds
3:30 PM 57.2 °F - 41.0 °F 55% 29.80 in 6.2 mi WNW 20.7 mph - N/A   Scattered Clouds
4:00 PM 58 °F - 37 °F 34% 29.82 in 25 mi West 20.1 mph - -   Scattered Clouds
4:00 PM 59.0 °F - 37.4 °F 45% 29.80 in 6.2 mi West 20.7 mph - N/A   Partly Cloudy
4:30 PM 59.0 °F - 35.6 °F 42% 29.80 in 6.2 mi WNW 21.9 mph - N/A   Partly Cloudy
5:00 PM 59 °F - 37 °F 32% 29.81 in 25 mi WNW 20.1 mph - -   Scattered Clouds
5:00 PM 59.0 °F - 37.4 °F 45% 29.80 in 6.2 mi WNW 21.9 mph - N/A   Partly Cloudy
5:30 PM 59.0 °F - 37.4 °F 45% 29.80 in 6.2 mi WNW 23.0 mph - N/A   Partly Cloudy
6:00 PM 59 °F - 38 °F 34% 29.83 in 25 mi WNW 13.4 mph - -   Scattered Clouds
6:00 PM 59.0 °F - 37.4 °F 45% 29.80 in 6.2 mi WNW 13.8 mph - N/A   Partly Cloudy
6:30 PM 57.2 °F - 37.4 °F 48% 29.83 in 6.2 mi NW 15.0 mph - N/A   Partly Cloudy
7:00 PM 57 °F - 37 °F 36% 29.85 in 25 mi NW 11.2 mph - -   Scattered Clouds
7:00 PM 57.2 °F - 37.4 °F 48% 29.83 in 6.2 mi NW 11.5 mph - N/A   Partly Cloudy
7:30 PM 55.4 °F - 37.4 °F 51% 29.83 in 6.2 mi WNW 8.1 mph - N/A   Scattered Clouds
8:00 PM 54 °F - 38 °F 43% 29.87 in 19 mi NW 6.7 mph - -   Partly Cloudy
8:00 PM 55.4 °F - 37.4 °F 51% 29.86 in 6.2 mi NNW 8.1 mph - N/A   Partly Cloudy
8:30 PM 53.6 °F - 39.2 °F 58% 29.86 in - NW 8.1 mph - N/A   Clear
9:00 PM 51.8 °F - 37.4 °F 58% 29.86 in - WNW 6.9 mph - N/A   Clear
9:30 PM 51.8 °F - 37.4 °F 58% 29.89 in - WNW 5.8 mph - N/A   Clear
10:00 PM 51 °F - 38 °F 51% 29.91 in 19 mi WNW 4.5 mph - -   Scattered Clouds
10:00 PM 51.8 °F - 37.4 °F 58% 29.89 in - NW 5.8 mph - N/A   Clear
10:30 PM 46.4 °F 44.3 °F 37.4 °F 71% 29.89 in - SW 4.6 mph - N/A   Clear
11:00 PM 50 °F - 38 °F 54% 29.93 in 19 mi WSW 6.7 mph - -  
11:00 PM 50.0 °F - 37.4 °F 62% 29.89 in - WSW 6.9 mph - N/A   Clear
11:30 PM 48.2 °F - 39.2 °F 71% 29.92 in - NW 5.8 mph - N/A   Clear